Tracking 18980 objects as of 22-Feb-2018
HD Live streaming from Space Station
objects crossing your sky now

FENGYUN 1C DEB

Track FENGYUN 1C DEB now!
10-day predictions


NORAD ID: 30334
Int'l Code: 1999-025AAV
Perigee: 842.5 km
Apogee: 1,080.9 km
Inclination: 98.9 °
Period: 104.1 minutes
Semi major axis: 7332 km
RCS: 0.0454 m2 (small)
Launch date: May 10, 1999
Source: People's Republic of China (PRC)
Launch site: Taiyaun Space Center, China (TSC)

Note: This is SATELLITE DEBRIS
aabbcc
Your satellite tracking list
Your tracking list is empty




NASA's NSSDC Master Catalog

Two Line Element Set (TLE):
1 30334U 99025AAV 18053.20458948  .00000445  00000-0  40346-3 0  9998
2 30334  98.8837 238.3835 0162559 119.4237 302.1774 13.82621658557615
Source of the keplerian elements: AFSPC